Location: Chrząstowo
(52.0654°N, 17.1290°E)
Time: 16:56:06
(UTC+01:00)

Envisat - Pass Details

Date: 19 December 2019
Orbit: 764 x 766 km, 98.1° (Epoch: 19 January)

Event Time Altitude Azimuth Distance (km) Brightness Sun altitude
Rises 06:42:36 0° 15° (NNE) 3,247 6.1 -10.4°
Reaches altitude 10° 06:44:56 10° 18° (NNE) 2,316 5.4 -10.1°
Maximum altitude 06:50:02 73° 103° (ESE) 804 3.3 -9.4°
Drops below altitude 10° 06:55:06 10° 188° (S) 2,297 5.7 -8.7°
Sets 06:57:24 0° 191° (S) 3,219 6.5 -8.4°
